Regional Weather Roundup
Issued by NWS

Home | Current Version | Previous Version | Graphics & Text | Print | Product List | Glossary On
Versions: 1 2 3 4 5 6 7 8 9 10 11 12 13 14 15 16 17 18 19 20 21 22 23 24 25 26 27 28 29 30 31 32 33 34 35 36 37 38 39 40 41 42 43 44 45 46 47 48 49 50
815
ASUS45 KBOU 220410
RWRCO

WEATHER ROUNDUP FOR COLORADO
NATIONAL WEATHER SERVICE DENVER/BOULDER CO
1000 PM MDT SAT APR 21 2018

NOTE: "FAIR" INDICATES FEW OR NO CLOUDS BELOW 12000 FEET WITH NO
SIGNIFICANT WEATHER AND/OR OBSTRUCTIONS TO VISIBILITY.

COZ001>005-013-030-031-220500-
...NORTHWEST COLORADO...

CITY           SKY/WX    TMP DP  RH WIND       PRES   REMARKS
CRAIG          FAIR      43  36  76 E5        30.20R
HAYDEN         FAIR      41  34  76 E7        30.23R
MEEKER         FAIR      42  35  76 NE7       30.21R
RANGELY        FAIR      46  39  76 N3        30.14R
RABBIT EARS PA MOCLDY   N/A N/A N/A W10G17    30.30R
STEAMBOAT SPGS FAIR      36  34  92 CALM      30.23R
WALDEN         FAIR      30  27  86 SE6       30.23S WCI  24
$$

COZ006>008-011-220500-
...WEST CENTRAL VALLEYS...

CITY           SKY/WX    TMP DP  RH WIND       PRES   REMARKS
GRAND JUNCTION FAIR      52  36  54 SE8       30.16R
MONTROSE       FAIR      46  34  62 SE10      30.24R
EAGLE          FAIR      37  34  89 E7        30.27R
RIFLE          FAIR      44  39  82 E7        30.21R
DELTA          FAIR      51  37  60 N10       30.21S
NUCLA          FAIR      46  32  57 SE6       30.25S
$$

COZ017>023-064>068-220500-
...SOUTHWEST COLORADO...

CITY           SKY/WX    TMP DP  RH WIND       PRES   REMARKS
DURANGO        FAIR      50  20  30 N12       30.16R
CORTEZ         FAIR      45  26  47 E6        30.20R
PAGOSA SPRINGS FAIR      48  11  22 N6        30.22R
TELLURIDE      FAIR      36  26  68 CALM      30.33S
WOLF CREEK PAS FAIR      25  19  80 N7        30.40S WCI  17
$$

COZ009-010-012-014-032>034-037-058>063-220500-
...CENTRAL COLORADO...

CITY           SKY/WX    TMP DP  RH WIND       PRES   REMARKS
ASPEN          FAIR      34  31  88 S5        30.26S WCI  30
BUENA VISTA    FAIR      40  27  59 CALM      30.24S
COPPER MTN     NOT AVBL
BERTHOUD PASS  CLOUDY    23  12  63 NW33G39   30.29S WCI   5
COTTONWOOD PAS FAIR      37  27  65 W13G21    30.27S
GUNNISON       FAIR      38  30  73 CALM      30.27R
GRANBY         CLOUDY    35  32  88 CALM      30.26S
KREMMLING      FAIR      41  34  75 SE5       30.25R
LEADVILLE      FAIR      26  24  92 N6        30.28R WCI  19
MONARCH PASS     N/A     23  19  86 W8        30.45R WCI  14
SALIDA         FAIR      37  33  82 SE10      30.30R
SUNLIGHT       FAIR      28  27  93 W6        30.38R WCI  22
WILKERSON PASS CLOUDY    27  23  86 NW10G20   30.31S WCI  17
$$

COZ069>075-220500-
...SAN LUIS VALLEY/SANGRE DE CRISTO MOUNTAINS...

CITY           SKY/WX    TMP DP  RH WIND       PRES   REMARKS
ALAMOSA        FAIR      44  25  47 NW14      30.21R
DEL NORTE      FAIR      39  21  48 W7        30.26R
LA VETA PASS   MOCLDY    32  28  86 W13       30.38S WCI  22
SAGUACHE       NOT AVBL
$$

COZ035-036-038>040-220500-
...NORTHERN COLORADO FRONT RANGE...

CITY           SKY/WX    TMP DP  RH WIND       PRES   REMARKS
DENVER INTL AP MOCLDY    34  32  92 S8        30.19R WCI  27
AURORA         MOCLDY    35  35  99 SE8       30.19S WCI  28
FRONT RANGE AP CLOUDY    38  36  93 E14       30.20R
ERIE MUNI ARPT CLOUDY    37  35  92 CALM      30.23S
BOULDER MUN AP FAIR      37  36  93 SE3       30.17S
CENTENNIAL     FAIR      36  33  89 S8        30.18S
BROOMFIELD     MOCLDY    37  36  93 CALM      30.18S
FORT COLLINS   FAIR      37  34  89 SE13      30.19R
LONGMONT       FAIR      37  34  88 CALM      30.20R
$$

COZ041-046-047-076>085-087-088-220500-
...PIKES PEAK/PALMER DIVIDE AND SOUTHERN FOOTHILLS...

CITY           SKY/WX    TMP DP  RH WIND       PRES   REMARKS
COLO. SPRINGS  CLOUDY    38  33  82 SE7       30.22R
A. F. ACADEMY  CLOUDY    37  32  82 S7        30.21S
SCHRIEVER AFB  NOT AVBL
CHEYENNE MTN   MOCLDY    33  33  98 S7        30.15R WCI  27
ELLICOTT         N/A    N/A N/A N/A S7        30.21R
FALCON         CLOUDY    35  31  85 SW3       30.23S
FORT CARSON    CLOUDY    39  33  81 SE8       30.20S
LIMON          CLOUDY    36  32  85 SE6       30.22S
MONUMENT HILL  CLOUDY    32  30  93 S8        30.22R WCI  25
CANON CITY     FAIR      41  36  81 CALM      30.21F
WALSENBURG     NOT AVBL
TRINIDAD       CLOUDY    40  36  86 CALM      30.23S
$$

COZ042>045-048>051-090-091-220500-
...NORTHEAST COLORADO...

CITY           SKY/WX    TMP DP  RH WIND       PRES   REMARKS
GREELEY ARPT   MOCLDY    38  36  92 SE3       30.20R
AKRON          MOCLDY    36  35  96 SE7       30.20F
BURLINGTON     CLOUDY    39  37  92 E3        30.23S
WRAY           CLOUDY    39  39 100 SE3       30.24S
YUMA           CLOUDY    37  36  93 S5        30.22S
STERLING       NOT AVBL
HOLYOKE        CLOUDY    41  37  87 E9        30.23F
FORT MORGAN    CLOUDY    36  34  91 SE5       30.21F
$$

COZ086-089-092>099-220500-
...SOUTHEAST COLORADO...

CITY           SKY/WX    TMP DP  RH WIND       PRES   REMARKS
PUEBLO         CLOUDY    45  35  68 SE7       30.22S
LA JUNTA       CLOUDY    43  40  89 E7        30.24R
LAMAR          CLOUDY    42  37  82 E6        30.22S
SPRINGFIELD      N/A     39  37  92 NE6       30.23R
$$




USA.gov is the U.S. government's official web portal to all federal, state and local government web resources and services.